This is the latest recevied weather packets stored in our database for station/object KB4KY. If no packets are shown the sender has not sent any weather packets the latest 10 day(s).
| Time | Temp. | Humidity | Pressure | Rain* | Wind** | Luminosity | Snow |
|---|---|---|---|---|---|---|---|
| 1777829080 | 16.67° C | 37% | 1019.2 hPa | 0 mm | - | - | - |
| 1777828779 | 16.11° C | 48% | 1019.2 hPa | 0 mm | - | - | - |
| 1777828563 | 16.67° C | 42% | 1019.2 hPa | 0 mm | - | - | - |
| 1777828478 | 16.67° C | 42% | 1019.2 hPa | 0 mm | - | - | - |
| 1777828228 | 16.11° C | 47% | 1019.4 hPa | 0 mm | - | - | - |
| 1777828227 | 15.56° C | 43% | 1019.4 hPa | 0 mm | - | - | - |
| 1777828178 | 16.11° C | 47% | 1019.4 hPa | 0 mm | - | - | - |
| 1777827878 | 15.56° C | 43% | 1019.4 hPa | 0 mm | - | - | - |
| 1777827579 | 15° C | 42% | 1019.5 hPa | 0 mm | - | - | - |
| 1777827405 | 15° C | 44% | 1019.6 hPa | 0 mm | - | - | - |
| 1777827403 | 15° C | 42% | 1019.7 hPa | 0 mm | - | - | - |
| 1777827287 | 15° C | 44% | 1019.6 hPa | 0 mm | - | - | - |
| 1777826977 | 15° C | 42% | 1019.7 hPa | 0 mm | - | - | - |
| 1777826681 | 15° C | 38% | 1019.8 hPa | 0 mm | - | - | - |
| 1777826549 | 16.11° C | 41% | 1020.2 hPa | 0 mm | - | - | - |
| 1777826376 | 15° C | 41% | 1020 hPa | 0 mm | - | - | - |
| 1777826077 | 15° C | 41% | 1020.1 hPa | 0 mm | - | - | - |
| 1777825778 | 15.56° C | 39% | 1020.2 hPa | 0 mm | - | - | - |
| 1777825478 | 16.11° C | 41% | 1020.2 hPa | 0 mm | - | - | - |
| 1777825175 | 15.56° C | 42% | 1020.2 hPa | 0 mm | - | - | - |
| 1777824875 | 15.56° C | 43% | 1020.4 hPa | 0 mm | - | - | - |
| 1777824576 | 15° C | 38% | 1020.4 hPa | 0 mm | - | - | - |
| 1777824276 | 16.11° C | 40% | 1020.6 hPa | 0 mm | - | - | - |
| 1777824037 | 15° C | 47% | 1020.9 hPa | 0 mm | - | - | - |
| 1777823974 | 16.11° C | 46% | 1020.8 hPa | 0 mm | - | - | - |
* Rain latest hour (hover to see other rain measurements)
** Current wind speed in m/s (hover to see current wind gust speed)